Location: Zagreb
(45.8000°N, 16.0000°E)
Time: 08:42:31
(UTC+01:00)

N. Korean satellite - Pass Details

Date: 10 December 2021
Orbit: 447 x 491 km, 97.3° (Epoch: 23 January)

Event Time Altitude Azimuth Distance (km) Brightness Sun altitude
Rises 06:05:20 0° 359° (N) 2,461 9.9 -13.5°
Reaches altitude 10° 06:07:41 10° 343° (NNW) 1,583 8.8 -13.1°
Enters shadow 06:08:25 14° 334° (NNW) 1,352 8.4 -13.0°
Exits shadow 06:11:01 20° 274° (W) 1,096 7.8 -12.5°
Drops below altitude 10° 06:12:57 10° 241° (WSW) 1,577 8.8 -12.2°
Sets 06:15:16 0° 225° (SW) 2,447 9.9 -11.8°
